| time (UTC) | temp C | wind direction | speed KPH | gust KPH | rain 1hr cm | rain 24hr cm | rain mn cm | humidity % | barometer mb |
| 20260906064053 | 10 | 249 | 3.2 | 25.7 | 0.00 | 0.00 | 0.00 | 80 | 1003.2 |
| 20260906063352 | 10 | 248 | 4.8 | 4.8 | 0.00 | 0.00 | 0.00 | 80 | 1003.2 |
| 20260906062650 | 10 | 254 | 12.9 | 20.9 | 0.00 | 0.00 | 0.00 | 82 | 1003.1 |
| 20260906061948 | 9 | 248 | 8.0 | 12.9 | 0.00 | 0.00 | 0.00 | 83 | 1003.1 |
| 20260906061309 | 9 | 248 | 4.8 | 19.3 | 0.00 | 0.00 | 0.00 | 84 | 1003.0 |
| 20260906060556 | 9 | 248 | 4.8 | 16.1 | 0.00 | 0.00 | 0.00 | 84 | 1003.0 |
| 20260906055855 | 9 | 248 | 4.8 | 4.8 | 0.00 | 0.00 | 0.00 | 83 | 1002.9 |
| 20260906055154 | 9 | 248 | 1.6 | 4.8 | 0.00 | 0.00 | 0.00 | 84 | 1002.8 |
| 20260906054452 | 9 | 248 | 3.2 | 11.3 | 0.00 | 0.00 | 0.00 | 84 | 1002.8 |
| 20260906053748 | 8 | 248 | 4.8 | 9.7 | 0.00 | 0.00 | 0.00 | 84 | 1002.7 |
| 20260906053046 | 8 | 248 | 8.0 | 11.3 | 0.00 | 0.00 | 0.00 | 84 | 1002.6 |
| 20260906052355 | 8 | 248 | 4.8 | 8.0 | 0.00 | 0.00 | 0.00 | 84 | 1002.6 |
| 20260906051652 | 8 | 248 | 9.7 | 11.3 | 0.00 | 0.00 | 0.00 | 84 | 1002.5 |
| 20260906050951 | 8 | 248 | 3.2 | 8.0 | 0.00 | 0.00 | 0.00 | 84 | 1002.5 |
| 20260906050248 | 8 | 248 | 3.2 | 3.2 | 0.00 | 0.00 | 0.00 | 85 | 1002.5 |
| 20260906045546 | 8 | 248 | 4.8 | 14.5 | 0.00 | 0.00 | 0.00 | 85 | 1002.5 |
| 20260906044857 | 8 | 248 | 8.0 | 9.7 | 0.00 | 0.00 | 0.00 | 85 | 1002.5 |
| 20260906044155 | 8 | 248 | 8.0 | 16.1 | 0.00 | 0.00 | 0.00 | 85 | 1002.6 |
| 20260906043453 | 8 | 248 | 4.8 | 3.2 | 0.00 | 0.00 | 0.00 | 85 | 1002.5 |
| 20260906042751 | 8 | 248 | 1.6 | 1.6 | 0.00 | 0.00 | 0.00 | 85 | 1002.4 |
| 20260906042051 | 8 | 248 | 8.0 | 14.5 | 0.00 | 0.00 | 0.00 | 85 | 1002.4 |
| 20260906041348 | 7 | 248 | 3.2 | 4.8 | 0.00 | 0.00 | 0.00 | 85 | 1002.3 |
| 20260906040646 | 7 | 248 | 8.0 | 9.7 | 0.00 | 0.00 | 0.00 | 86 | 1002.1 |
| 20260906035955 | 7 | 248 | 11.3 | 12.9 | 0.00 | 0.00 | 0.00 | 86 | 1002.1 |
| 20260906035255 | 7 | 248 | 8.0 | 12.9 | 0.00 | 0.00 | 0.00 | 86 | 1001.8 |
| 20260906034552 | 8 | 248 | 9.7 | 9.7 | 0.00 | 0.00 | 0.00 | 85 | 1001.8 |
| 20260906033851 | 8 | 248 | 8.0 | 9.7 | 0.00 | 0.00 | 0.00 | 85 | 1001.7 |
| 20260906033148 | 8 | 248 | 4.8 | 9.7 | 0.00 | 0.00 | 0.00 | 85 | 1001.6 |
| 20260906032447 | 8 | 248 | 3.2 | 14.5 | 0.00 | 0.00 | 0.00 | 85 | 1001.6 |
| 20260906031746 | 9 | 248 | 4.8 | 19.3 | 0.00 | 0.00 | 0.00 | 85 | 1001.5 |
| 20260906031056 | 9 | 248 | 8.0 | 11.3 | 0.00 | 0.00 | 0.00 | 85 | 1001.3 |
| 20260906030354 | 9 | 248 | 3.2 | 4.8 | 0.00 | 0.00 | 0.00 | 85 | 1001.3 |
| 20260906025652 | 9 | 248 | 3.2 | 9.7 | 0.00 | 0.00 | 0.00 | 85 | 1001.3 |
| 20260906024950 | 9 | 248 | 9.7 | 9.7 | 0.00 | 0.00 | 0.00 | 85 | 1001.2 |
| 20260906024246 | 9 | 248 | 4.8 | 8.0 | 0.00 | 0.00 | 0.00 | 84 | 1001.0 |
| 20260906023556 | 9 | 248 | 3.2 | 4.8 | 0.00 | 0.00 | 0.00 | 85 | 1000.9 |
| 20260906022854 | 9 | 248 | 4.8 | 8.0 | 0.00 | 0.00 | 0.00 | 85 | 1000.9 |
| 20260906022151 | 9 | 248 | 8.0 | 14.5 | 0.00 | 0.00 | 0.00 | 85 | 1000.8 |
| 20260906021450 | 9 | 248 | 4.8 | 9.7 | 0.00 | 0.00 | 0.00 | 85 | 1000.7 |
| 20260906020747 | 9 | 248 | 3.2 | 4.8 | 0.00 | 0.00 | 0.00 | 85 | 1000.6 |
| 20260906020057 | 9 | 248 | 3.2 | 9.7 | 0.00 | 0.00 | 0.00 | 85 | 1000.6 |
| 20260906015355 | 9 | 248 | 3.2 | 8.0 | 0.00 | 0.00 | 0.00 | 85 | 1000.4 |
| 20260906014652 | 9 | 248 | 4.8 | 8.0 | 0.00 | 0.00 | 0.00 | 85 | 1000.5 |
| 20260906013949 | 9 | 248 | 4.8 | 11.3 | 0.00 | 0.00 | 0.00 | 85 | 1000.5 |
| 20260906013248 | 9 | 248 | 3.2 | 4.8 | 0.00 | 0.00 | 0.00 | 85 | 1000.5 |
| 20260906012547 | 9 | 248 | 3.2 | 3.2 | 0.00 | 0.00 | 0.00 | 85 | 1000.5 |
| 20260906011847 | 9 | 248 | 8.0 | 9.7 | 0.00 | 0.00 | 0.00 | 85 | 1000.1 |
| 20260906011155 | 10 | 248 | 4.8 | 4.8 | 0.00 | 0.00 | 0.00 | 85 | 1000.1 |
| 20260906010453 | 10 | 248 | 1.6 | 1.6 | 0.00 | 0.00 | 0.00 | 85 | 1000.1 |
| 20260906005750 | 10 | 248 | 1.6 | 8.0 | 0.00 | 0.00 | 0.00 | 85 | 1000.0 |
| 20260906005047 | 10 | 248 | 1.6 | 8.0 | 0.00 | 0.00 | 0.00 | 85 | 1000.0 |
| 20260906004357 | 10 | 248 | 3.2 | 9.7 | 0.00 | 0.00 | 0.00 | 85 | 999.9 |
| 20260906003654 | 10 | 248 | 1.6 | 3.2 | 0.00 | 0.00 | 0.00 | 85 | 999.9 |
| 20260906002952 | 10 | 248 | 4.8 | 9.7 | 0.00 | 0.00 | 0.00 | 85 | 999.8 |
| 20260906002250 | 10 | 248 | 1.6 | 4.8 | 0.00 | 0.00 | 0.00 | 85 | 999.7 |
| 20260906001549 | 10 | 248 | 1.6 | 4.8 | 0.00 | 0.00 | 0.00 | 85 | 999.7 |
| 20260906000848 | 10 | 248 | 4.8 | 11.3 | 0.00 | 0.00 | 0.00 | 85 | 999.7 |
| 20260906000156 | 10 | 248 | 4.8 | 11.3 | 0.00 | 0.00 | 0.00 | 85 | 999.7 |
| 20260905235454 | 10 | 248 | 1.6 | 3.2 | 0.00 | 0.00 | 0.00 | 85 | 999.6 |
| 20260905234753 | 10 | 248 | 3.2 | 4.8 | 0.00 | 0.00 | 0.00 | 85 | 999.5 |
| 20260905234050 | 10 | 248 | 3.2 | 1.6 | 0.00 | 0.00 | 0.00 | 85 | 999.4 |
| 20260905233349 | 10 | 248 | 3.2 | 4.8 | 0.00 | 0.00 | 0.00 | 85 | 999.3 |
| 20260905232647 | 10 | 248 | 8.0 | 16.1 | 0.00 | 0.00 | 0.00 | 85 | 999.2 |
| 20260905232009 | 10 | 248 | 4.8 | 14.5 | 0.00 | 0.00 | 0.00 | 85 | 999.2 |
| 20260905231255 | 10 | 248 | 1.6 | 8.0 | 0.00 | 0.00 | 0.00 | 85 | 999.2 |
| 20260905230551 | 10 | 248 | 4.8 | 4.8 | 0.00 | 0.00 | 0.00 | 85 | 999.1 |
| 20260905225850 | 10 | 248 | 3.2 | 4.8 | 0.00 | 0.00 | 0.00 | 84 | 999.0 |
| 20260905225148 | 10 | 248 | 1.6 | 4.8 | 0.00 | 0.00 | 0.00 | 84 | 999.0 |
| 20260905224446 | 10 | 248 | 1.6 | 4.8 | 0.00 | 0.00 | 0.00 | 84 | 998.9 |
| 20260905223756 | 10 | 248 | 3.2 | 3.2 | 0.00 | 0.00 | 0.00 | 84 | 998.9 |
| 20260905223052 | 10 | 248 | 1.6 | 4.8 | 0.00 | 0.00 | 0.00 | 84 | 998.9 |
| 20260905222351 | 10 | 248 | 3.2 | 11.3 | 0.00 | 0.00 | 0.00 | 84 | 998.8 |
| 20260905221648 | 10 | 248 | 4.8 | 8.0 | 0.00 | 0.00 | 0.00 | 84 | 998.8 |
| 20260905220946 | 10 | 248 | 3.2 | 4.8 | 0.00 | 0.00 | 0.00 | 84 | 998.9 |
| 20260905220256 | 10 | 248 | 1.6 | 4.8 | 0.00 | 0.00 | 0.00 | 84 | 998.8 |
| 20260905215553 | 10 | 248 | 4.8 | 4.8 | 0.00 | 0.00 | 0.00 | 84 | 998.8 |
| 20260905214851 | 10 | 248 | 3.2 | 4.8 | 0.00 | 0.00 | 0.00 | 84 | 998.8 |
| 20260905214149 | 10 | 248 | 3.2 | 3.2 | 0.00 | 0.00 | 0.00 | 84 | 998.8 |
| 20260905213447 | 10 | 248 | 0.0 | 1.6 | 0.00 | 0.00 | 0.00 | 84 | 998.7 |
| 20260905212757 | 10 | 248 | 1.6 | 3.2 | 0.00 | 0.00 | 0.00 | 84 | 998.7 |
| 20260905212055 | 10 | 248 | 1.6 | 4.8 | 0.00 | 0.00 | 0.00 | 84 | 998.6 |
| 20260905211353 | 10 | 248 | 0.0 | 3.2 | 0.00 | 0.00 | 0.00 | 84 | 998.5 |
| 20260905210651 | 9 | 248 | 1.6 | 4.8 | 0.00 | 0.00 | 0.00 | 84 | 998.3 |
| 20260905205947 | 9 | 248 | 0.0 | 3.2 | 0.00 | 0.00 | 0.00 | 84 | 998.3 |
| 20260905205257 | 9 | 248 | 0.0 | 0.0 | 0.00 | 0.00 | 0.00 | 84 | 998.2 |
| 20260905204555 | 8 | 248 | 0.0 | 3.2 | 0.00 | 0.00 | 0.00 | 84 | 998.2 |
| 20260905203853 | 8 | 248 | 1.6 | 3.2 | 0.00 | 0.00 | 0.00 | 84 | 998.1 |
| 20260905203151 | 8 | 248 | 3.2 | 4.8 | 0.00 | 0.00 | 0.00 | 84 | 998.0 |
| 20260905202448 | 8 | 248 | 0.0 | 3.2 | 0.00 | 0.00 | 0.00 | 84 | 998.0 |
| 20260905201746 | 9 | 248 | 1.6 | 3.2 | 0.00 | 0.00 | 0.00 | 84 | 998.0 |
| 20260905201054 | 9 | 248 | 0.0 | 1.6 | 0.00 | 0.00 | 0.00 | 84 | 997.9 |
| 20260905200352 | 9 | 248 | 0.0 | 1.6 | 0.00 | 0.00 | 0.00 | 84 | 997.9 |
| 20260905195651 | 9 | 248 | 1.6 | 3.2 | 0.00 | 0.00 | 0.00 | 84 | 997.9 |
| 20260905194950 | 9 | 248 | 0.0 | 0.0 | 0.00 | 0.00 | 0.00 | 84 | 997.8 |
| 20260905194248 | 9 | 248 | 0.0 | 1.6 | 0.00 | 0.00 | 0.00 | 84 | 997.6 |
| 20260905193546 | 9 | 248 | 0.0 | 0.0 | 0.00 | 0.00 | 0.00 | 84 | 997.6 |
| 20260905192855 | 8 | 248 | 0.0 | 0.0 | 0.00 | 0.00 | 0.00 | 84 | 997.6 |
| 20260905192153 | 8 | 248 | 0.0 | 0.0 | 0.00 | 0.00 | 0.00 | 84 | 997.5 |
| 20260905191450 | 9 | 248 | 0.0 | 0.0 | 0.00 | 0.00 | 0.00 | 84 | 997.6 |
| 20260905190748 | 9 | 248 | 0.0 | 0.0 | 0.00 | 0.00 | 0.00 | 84 | 997.5 |
| 20260905190046 | 9 | 248 | 0.0 | 0.0 | 0.00 | 0.00 | 0.00 | 84 | 997.5 |
| 20260905185355 | 9 | 249 | 0.0 | 0.0 | 0.00 | 0.00 | 0.00 | 84 | 997.5 |
| 20260905184652 | 9 | 248 | 0.0 | 0.0 | 0.00 | 0.00 | 0.00 | 84 | 997.4 |
| 20260905183949 | 8 | 248 | 0.0 | 0.0 | 0.00 | 0.00 | 0.00 | 84 | 997.4 |
| 20260905183247 | 8 | 248 | 0.0 | 0.0 | 0.00 | 0.00 | 0.00 | 84 | 997.4 |
| 20260905182557 | 8 | 248 | 0.0 | 0.0 | 0.00 | 0.00 | 0.00 | 84 | 997.4 |
| 20260905181853 | 8 | 250 | 0.0 | 3.2 | 0.00 | 0.00 | 0.00 | 84 | 997.4 |
| 20260905181151 | 9 | 263 | 0.0 | 0.0 | 0.00 | 0.00 | 0.00 | 84 | 997.3 |
| 20260905180448 | 9 | 258 | 0.0 | 0.0 | 0.00 | 0.00 | 0.00 | 84 | 997.3 |
| 20260905175746 | 9 | 260 | 0.0 | 0.0 | 0.00 | 0.00 | 0.00 | 84 | 997.3 |
| 20260905175056 | 10 | 288 | 0.0 | 0.0 | 0.00 | 0.00 | 0.00 | 84 | 997.3 |
| 20260905174352 | 10 | 280 | 0.0 | 0.0 | 0.00 | 0.00 | 0.00 | 85 | 997.2 |
| 20260905173652 | 10 | 264 | 0.0 | 0.0 | 0.00 | 0.00 | 0.00 | 84 | 997.2 |
| 20260905172948 | 11 | 285 | 0.0 | 0.0 | 0.00 | 0.00 | 0.00 | 84 | 997.1 |
| 20260905172246 | 11 | 289 | 0.0 | 1.6 | 0.00 | 0.00 | 0.00 | 84 | 997.1 |
| 20260905171556 | 11 | 278 | 3.2 | 8.0 | 0.00 | 0.00 | 0.00 | 83 | 997.1 |
| 20260905170855 | 11 | 45 | 0.0 | 0.0 | 0.00 | 0.00 | 0.00 | 83 | 996.9 |
| 20260905170153 | 11 | 22 | 0.0 | 0.0 | 0.00 | 0.00 | 0.00 | 82 | 996.9 |
| 20260905165449 | 12 | 272 | 0.0 | 1.6 | 0.00 | 0.00 | 0.00 | 82 | 996.7 |
| 20260905164747 | 12 | 37 | 0.0 | 0.0 | 0.00 | 0.00 | 0.00 | 80 | 996.7 |
| 20260905164057 | 13 | 51 | 0.0 | 0.0 | 0.00 | 0.00 | 0.00 | 80 | 996.5 |
| 20260905163354 | 13 | 59 | 0.0 | 0.0 | 0.00 | 0.00 | 0.00 | 80 | 996.5 |
| 20260905162704 | 13 | 268 | 0.0 | 1.6 | 0.00 | 0.00 | 0.00 | 79 | 996.5 |
| 20260905161949 | 13 | 328 | 1.6 | 3.2 | 0.00 | 0.00 | 0.00 | 78 | 996.4 |
| 20260905161247 | 13 | 62 | 1.6 | 3.2 | 0.00 | 0.00 | 0.00 | 77 | 996.4 |
| 20260905160557 | 13 | 44 | 1.6 | 4.8 | 0.00 | 0.00 | 0.00 | 76 | 996.4 |
| 20260905155854 | 13 | 42 | 0.0 | 1.6 | 0.00 | 0.00 | 0.00 | 76 | 996.3 |
| 20260905155153 | 14 | 200 | 1.6 | 3.2 | 0.00 | 0.00 | 0.00 | 75 | 996.2 |
| 20260905154452 | 14 | 28 | 1.6 | 4.8 | 0.00 | 0.00 | 0.00 | 74 | 996.2 |
| 20260905153749 | 14 | 302 | 3.2 | 3.2 | 0.00 | 0.00 | 0.00 | 74 | 996.1 |
| 20260905153048 | 15 | 44 | 1.6 | 3.2 | 0.00 | 0.00 | 0.00 | 74 | 996.1 |
| 20260905152356 | 15 | 51 | 3.2 | 8.0 | 0.00 | 0.00 | 0.00 | 74 | 996.0 |
| 20260905151654 | 15 | 37 | 1.6 | 8.0 | 0.00 | 0.00 | 0.00 | 74 | 995.9 |
| 20260905150952 | 14 | 38 | 0.0 | 0.0 | 0.00 | 0.00 | 0.00 | 75 | 995.9 |
| 20260905150249 | 14 | 27 | 0.0 | 3.2 | 0.00 | 0.00 | 0.00 | 74 | 995.7 |
| 20260905145548 | 14 | 23 | 0.0 | 8.0 | 0.00 | 0.00 | 0.00 | 72 | 995.8 |
| 20260905144847 | 15 | 86 | 3.2 | 4.8 | 0.00 | 0.00 | 0.00 | 71 | 995.6 |
| 20260905144156 | 15 | 254 | 3.2 | 11.3 | 0.00 | 0.00 | 0.00 | 70 | 995.6 |
| 20260905143454 | 15 | 273 | 3.2 | 4.8 | 0.00 | 0.00 | 0.00 | 70 | 995.5 |
| 20260905142752 | 15 | 298 | 1.6 | 4.8 | 0.00 | 0.00 | 0.00 | 69 | 995.5 |
| 20260905142051 | 16 | 348 | 4.8 | 4.8 | 0.00 | 0.00 | 0.00 | 67 | 995.5 |
| 20260905141350 | 16 | 27 | 3.2 | 3.2 | 0.00 | 0.00 | 0.00 | 66 | 995.4 |
| 20260905140648 | 16 | 352 | 4.8 | 4.8 | 0.00 | 0.00 | 0.00 | 64 | 995.4 |
| 20260905135957 | 16 | 10 | 1.6 | 9.7 | 0.00 | 0.00 | 0.00 | 65 | 995.4 |
| 20260905135254 | 17 | 19 | 3.2 | 8.0 | 0.00 | 0.00 | 0.00 | 65 | 995.2 |
| 20260905134552 | 16 | 22 | 0.0 | 1.6 | 0.00 | 0.00 | 0.00 | 65 | 995.2 |
| 20260905133849 | 16 | 22 | 3.2 | 3.2 | 0.00 | 0.00 | 0.00 | 64 | 995.2 |
| 20260905133147 | 16 | 357 | 1.6 | 3.2 | 0.00 | 0.00 | 0.00 | 63 | 995.2 |
| 20260905132456 | 17 | 20 | 4.8 | 11.3 | 0.00 | 0.00 | 0.00 | 61 | 995.2 |
| 20260905131753 | 18 | 358 | 3.2 | 3.2 | 0.00 | 0.00 | 0.00 | 60 | 995.2 |
| 20260905131051 | 18 | 22 | 1.6 | 3.2 | 0.00 | 0.00 | 0.00 | 59 | 995.1 |
| 20260905130348 | 18 | 13 | 1.6 | 9.7 | 0.00 | 0.00 | 0.00 | 60 | 995.1 |
| 20260905125657 | 18 | 277 | 3.2 | 8.0 | 0.00 | 0.00 | 0.00 | 59 | 995.1 |
| 20260905124956 | 19 | 8 | 4.8 | 4.8 | 0.00 | 0.00 | 0.00 | 55 | 995.1 |
| 20260905124255 | 23 | 253 | 4.8 | 9.7 | 0.00 | 0.00 | 0.00 | 48 | 995.0 |
| 20260905123553 | 26 | 355 | 3.2 | 8.0 | 0.00 | 0.00 | 0.00 | 42 | 994.9 |
| 20260905122851 | 27 | 328 | 1.6 | 8.0 | 0.00 | 0.00 | 0.00 | 44 | 995.0 |
| 20260905122147 | 26 | 15 | 1.6 | 4.8 | 0.00 | 0.00 | 0.00 | 46 | 995.0 |
| 20260905121457 | 26 | 267 | 8.0 | 8.0 | 0.00 | 0.00 | 0.00 | 42 | 994.9 |
| 20260905120754 | 27 | 235 | 4.8 | 8.0 | 0.00 | 0.00 | 0.00 | 45 | 994.9 |
| 20260905120052 | 26 | 21 | 1.6 | 3.2 | 0.00 | 0.00 | 0.00 | 47 | 994.9 |
| 20260905115350 | 24 | 156 | 3.2 | 4.8 | 0.00 | 0.00 | 0.00 | 48 | 994.9 |
| 20260905114649 | 24 | 1 | 1.6 | 1.6 | 0.00 | 0.00 | 0.00 | 49 | 994.7 |
| 20260905113947 | 23 | 275 | 4.8 | 9.7 | 0.00 | 0.00 | 0.00 | 49 | 994.7 |
| 20260905113255 | 22 | 14 | 3.2 | 4.8 | 0.00 | 0.00 | 0.00 | 49 | 994.8 |
| 20260905112553 | 22 | 16 | 3.2 | 8.0 | 0.00 | 0.00 | 0.00 | 49 | 994.5 |
| 20260905111851 | 22 | 357 | 8.0 | 12.9 | 0.00 | 0.00 | 0.00 | 50 | 994.8 |
| 20260905111148 | 22 | 24 | 3.2 | 8.0 | 0.00 | 0.00 | 0.00 | 51 | 994.8 |
| 20260905110447 | 20 | 270 | 0.0 | 0.0 | 0.00 | 0.00 | 0.00 | 57 | 994.7 |
| 20260905105757 | 20 | 270 | 0.0 | 0.0 | 0.00 | 0.00 | 0.00 | 57 | 994.7 |
| 20260905105054 | 20 | 288 | 4.8 | 9.7 | 0.00 | 0.00 | 0.00 | 56 | 994.6 |
| 20260905104352 | 18 | 341 | 1.6 | 4.8 | 0.00 | 0.00 | 0.00 | 60 | 994.7 |
| 20260905103651 | 17 | 290 | 3.2 | 4.8 | 0.00 | 0.00 | 0.00 | 64 | 994.5 |
| 20260905102948 | 16 | 275 | 1.6 | 0.0 | 0.00 | 0.00 | 0.00 | 64 | 994.4 |
| 20260905102247 | 16 | 249 | 4.8 | 4.8 | 0.00 | 0.00 | 0.00 | 65 | 994.4 |
| 20260905101555 | 16 | 263 | 1.6 | 9.7 | 0.00 | 0.00 | 0.00 | 66 | 994.4 |
| 20260905100853 | 15 | 275 | 8.0 | 4.8 | 0.00 | 0.00 | 0.00 | 66 | 994.2 |
| 20260905100150 | 16 | 309 | 1.6 | 4.8 | 0.00 | 0.00 | 0.00 | 66 | 994.3 |
| 20260905095447 | 16 | 248 | 4.8 | 8.0 | 0.00 | 0.00 | 0.00 | 67 | 994.3 |
| 20260905094757 | 16 | 248 | 1.6 | 4.8 | 0.00 | 0.00 | 0.00 | 70 | 994.2 |
| 20260905094054 | 16 | 248 | 0.0 | 1.6 | 0.00 | 0.00 | 0.00 | 66 | 994.2 |
| 20260905093405 | 17 | 248 | 1.6 | 4.8 | 0.00 | 0.00 | 0.00 | 67 | 994.1 |
| 20260905092650 | 17 | 248 | 1.6 | 9.7 | 0.00 | 0.00 | 0.00 | 69 | 994.2 |
| 20260905091948 | 17 | 248 | 1.6 | 0.0 | 0.00 | 0.00 | 0.00 | 67 | 994.2 |
| 20260905091257 | 17 | 248 | 1.6 | 4.8 | 0.00 | 0.00 | 0.00 | 73 | 994.1 |
| 20260905090555 | 15 | 248 | 1.6 | 1.6 | 0.00 | 0.00 | 0.00 | 75 | 994.1 |
| 20260905085853 | 16 | 248 | 0.0 | 1.6 | 0.00 | 0.00 | 0.00 | 72 | 994.1 |
| 20260905085150 | 17 | 248 | 3.2 | 4.8 | 0.00 | 0.00 | 0.00 | 68 | 994.1 |
| 20260905084447 | 18 | 248 | 1.6 | 4.8 | 0.00 | 0.00 | 0.00 | 65 | 994.1 |
| 20260905083757 | 19 | 248 | 1.6 | 1.6 | 0.00 | 0.00 | 0.00 | 67 | 994.0 |
| 20260905083055 | 19 | 248 | 0.0 | 4.8 | 0.00 | 0.00 | 0.00 | 66 | 994.0 |
| 20260905082354 | 19 | 248 | 3.2 | 4.8 | 0.00 | 0.00 | 0.00 | 65 | 993.9 |
| 20260905081652 | 19 | 248 | 3.2 | 4.8 | 0.00 | 0.00 | 0.00 | 65 | 993.9 |
| 20260905080949 | 20 | 248 | 1.6 | 3.2 | 0.00 | 0.00 | 0.00 | 67 | 994.0 |
| 20260905080247 | 19 | 248 | 1.6 | 3.2 | 0.00 | 0.00 | 0.00 | 68 | 994.0 |
| 20260905075556 | 20 | 248 | 0.0 | 0.0 | 0.00 | 0.00 | 0.00 | 66 | 993.9 |
| 20260905074854 | 20 | 248 | 3.2 | 8.0 | 0.00 | 0.00 | 0.00 | 66 | 993.9 |
| 20260905074152 | 21 | 248 | 1.6 | 4.8 | 0.00 | 0.00 | 0.00 | 68 | 994.0 |
| 20260905073448 | 21 | 248 | 0.0 | 1.6 | 0.00 | 0.00 | 0.00 | 69 | 993.9 |
| 20260905072747 | 20 | 248 | 0.0 | 3.2 | 0.00 | 0.00 | 0.00 | 69 | 993.6 |
| 20260905072045 | 21 | 248 | 1.6 | 3.2 | 0.00 | 0.00 | 0.00 | 69 | 993.8 |
| 20260905071355 | 21 | 248 | 1.6 | 1.6 | 0.00 | 0.00 | 0.00 | 72 | 993.8 |
| 20260905070653 | 21 | 248 | 1.6 | 8.0 | 0.00 | 0.00 | 0.00 | 76 | 993.9 |
| 20260905065949 | 20 | 248 | 3.2 | 3.2 | 0.00 | 0.00 | 0.00 | 79 | 993.7 |
| 20260905065247 | 19 | 248 | 1.6 | 1.6 | 0.00 | 0.00 | 0.00 | 82 | 993.7 |
| 20260905064557 | 17 | 248 | 3.2 | 3.2 | 0.00 | 0.00 | 0.00 | 84 | 993.9 |